TITAN 3C TRANSTAGE DEB, 36984

Orbit data source: Space-Track

TITAN 3C TRANSTAGE DEB, 36984 is space debris originally from a launch on Tue, 21 Dec 1965 UTC launched from the Air Force Eastern Test Range (AFETR). Debris objects in space refer to the collection of defunct objects orbiting the Earth. Examples of debris include non-operational satellites, rocket bodies, and fragments generated from explosions, collisions, or faulty payload assembly.

Loading next visibility...
Identifier
36984, 1965-108DQ
Orbit
Active
Country
Flag of USUS
Related business
Manufacturer
Unknown
Mission
Spacecraft
Bus & Motor
Unknown
Mass
Unknown
Launch date (UTC)
1965-12-21 (60 years ago)
Launch vehicle
Unknown
Launch site
Air Force Eastern Test Range (AFETR)
Object type
Payload
Rocket body
Debris
Shape & HBR
Unknown shape, 0.1 m
Radar Cross Section
Small (<0.1 m²)

Expand to show TLE details & history
Last TLE update: 3 weeks ago

TLE from 3 weeks ago
0 TITAN 3C TRANSTAGE DEB
1 36984U 65108DQ  25277.46688293  .00001743  00000-0  36874-2 0  9994
2 36984  26.4548 329.0937 4093006 230.0087  86.2728  6.77147155624879
Epoch: 2025-10-04T11:12Z
TLE epoch observation values (Epoch: 2025-10-04T11:12:18.685Z)
Latitude
-0°
Longitude
147.61741°
Altitude
6,954.957 km
Speed
5.101 km/s
True Right ascension
21h 56m 22s
True Declination
0° 00' 00"
Sunlit
Object was in daylight at epoch
Visualization orbit readout
Latitude
Unknown
Longitude
Unknown
Altitude
Unknown
Speed
Unknown
Apparent Right ascension
Unknown
Apparent Declination
Unknown
Sunlit
N/A
Visualization observer readout
Local Sidereal Time
15:23:11
Azimuth
Unknown
Elevation
Unknown
Doppler factor
Unknown
Orbital elements
Apogee altitude
10,258.953 km
Perigee altitude
595.194 km
Semi-major axis
11,805.21 km
Eccentricity
0.4093
Inclination
26.4548°
RAAN
329.0937°
Arg. of periapsis
230.0087°
True anomaly
130.03097°
Mean anomaly
86.2728°
Eccentric anomaly
108.51073°
Mean motion
1.69213 °/min
Orbital period
212.75 mins
BSTAR
0.0036874
Loading maneuver chart data...
Computing Atmospheric mass density...

Documentation

Showing up to 5 results
|